Time,TemperatureF,DewpointF,PressureIn,WindDirection,WindDirectionDegrees,WindSpeedMPH,WindSpeedGustMPH,Humidity,HourlyPrecipIn,Conditions,Clouds,dailyrainin,SoftwareType,DateUTC
2013-09-29 00:01:00,64.0,56.6,30.02,SSW,202,2.0,5.0,77,0.00,,,0.00,Wunderground v.1.15,2013-09-29 04:01:00,
2013-09-29 00:02:00,64.0,56.6,30.02,South,190,2.0,5.0,77,0.00,,,0.00,Wunderground v.1.15,2013-09-29 04:02:00,
2013-09-29 00:03:00,63.9,56.5,30.01,SSW,201,1.0,5.0,77,0.00,,,0.00,Wunderground v.1.15,2013-09-29 04:03:00,
2013-09-29 00:07:00,63.9,56.9,30.01,SSE,157,2.0,5.0,78,0.00,,,0.00,Wunderground v.1.15,2013-09-29 04:07:00,
2013-09-29 00:13:00,63.8,56.8,30.01,SE,134,2.0,5.0,78,0.00,,,0.00,Wunderground v.1.15,2013-09-29 04:13:00,
2013-09-29 00:18:00,63.7,56.7,30.02,SSE,153,2.0,5.0,78,0.00,,,0.00,Wunderground v.1.15,2013-09-29 04:18:00,
2013-09-29 00:21:00,63.5,56.9,30.02,SSE,168,2.0,5.0,79,0.00,,,0.00,Wunderground v.1.15,2013-09-29 04:21:00,
2013-09-29 00:27:00,63.2,56.9,30.02,SSE,155,2.0,5.0,80,0.00,,,0.00,Wunderground v.1.15,2013-09-29 04:27:00,
2013-09-29 00:33:00,62.9,56.6,30.02,SSE,148,2.0,5.0,80,0.00,,,0.00,Wunderground v.1.15,2013-09-29 04:33:00,
2013-09-29 00:39:00,62.6,56.7,30.02,South,191,2.0,5.0,81,0.00,,,0.00,Wunderground v.1.15,2013-09-29 04:39:00,
2013-09-29 00:45:00,62.5,56.6,30.02,SSE,158,2.0,5.0,81,0.00,,,0.00,Wunderground v.1.15,2013-09-29 04:45:00,
2013-09-29 00:50:00,62.3,56.7,30.02,SE,136,2.0,2.0,82,0.00,,,0.00,Wunderground v.1.15,2013-09-29 04:50:00,
2013-09-29 00:56:00,62.1,56.5,30.02,South,176,1.0,5.0,82,0.00,,,0.00,Wunderground v.1.15,2013-09-29 04:56:00,
2013-09-29 01:02:00,62.0,56.8,30.02,SE,136,1.0,5.0,83,0.00,,,0.00,Wunderground v.1.15,2013-09-29 05:02:00,
2013-09-29 01:08:00,61.9,56.7,30.02,SE,125,1.0,5.0,83,0.00,,,0.00,Wunderground v.1.15,2013-09-29 05:08:00,
2013-09-29 01:14:00,61.9,56.7,30.01,SSE,155,2.0,5.0,83,0.00,,,0.00,Wunderground v.1.15,2013-09-29 05:14:00,
2013-09-29 01:20:00,61.8,56.6,30.02,SE,135,2.0,5.0,83,0.00,,,0.00,Wunderground v.1.15,2013-09-29 05:20:00,
2013-09-29 01:26:00,61.6,56.7,30.02,SSE,150,1.0,5.0,84,0.00,,,0.00,Wunderground v.1.15,2013-09-29 05:26:00,
2013-09-29 01:31:00,61.4,56.5,30.01,SSW,193,1.0,5.0,84,0.00,,,0.00,Wunderground v.1.15,2013-09-29 05:31:00,
2013-09-29 01:37:00,61.3,56.8,30.02,SSW,203,1.0,5.0,85,0.00,,,0.00,Wunderground v.1.15,2013-09-29 05:37:00,
2013-09-29 01:43:00,61.1,56.6,30.01,SSW,200,1.0,5.0,85,0.00,,,0.00,Wunderground v.1.15,2013-09-29 05:43:00,
2013-09-29 01:49:00,61.0,56.5,30.01,SSE,160,2.0,5.0,85,0.00,,,0.00,Wunderground v.1.15,2013-09-29 05:49:00,
2013-09-29 01:55:00,60.9,56.4,30.01,SE,135,2.0,5.0,85,0.00,,,0.00,Wunderground v.1.15,2013-09-29 05:55:00,
2013-09-29 02:00:00,60.9,56.7,30.01,SSE,166,2.0,5.0,86,0.00,,,0.00,Wunderground v.1.15,2013-09-29 06:00:00,
2013-09-29 02:06:00,60.9,56.7,30.01,SSW,210,2.0,5.0,86,0.00,,,0.00,Wunderground v.1.15,2013-09-29 06:06:00,
2013-09-29 02:11:00,61.0,56.8,30.01,South,170,2.0,5.0,86,0.00,,,0.00,Wunderground v.1.15,2013-09-29 06:11:00,
2013-09-29 02:17:00,61.1,56.9,30.01,South,187,2.0,5.0,86,0.00,,,0.00,Wunderground v.1.15,2013-09-29 06:17:00,
2013-09-29 02:23:00,61.3,56.8,30.01,South,176,2.0,5.0,85,0.00,,,0.00,Wunderground v.1.15,2013-09-29 06:23:00,
2013-09-29 02:29:00,61.6,57.0,30.01,SSE,152,3.0,5.0,85,0.00,,,0.00,Wunderground v.1.15,2013-09-29 06:29:00,
2013-09-29 02:35:00,61.8,56.9,30.01,SSW,195,3.0,5.0,84,0.00,,,0.00,Wunderground v.1.15,2013-09-29 06:35:00,
2013-09-29 02:41:00,62.0,57.1,30.00,SSW,210,3.0,5.0,84,0.00,,,0.00,Wunderground v.1.15,2013-09-29 06:41:00,
2013-09-29 02:47:00,62.3,57.1,30.01,South,172,3.0,5.0,83,0.00,,,0.00,Wunderground v.1.15,2013-09-29 06:47:00,
2013-09-29 02:52:00,62.4,57.2,30.01,SSE,158,3.0,5.0,83,0.00,,,0.00,Wunderground v.1.15,2013-09-29 06:52:00,
2013-09-29 02:57:00,62.5,57.3,30.00,SSE,155,3.0,5.0,83,0.00,,,0.00,Wunderground v.1.15,2013-09-29 06:57:00,
2013-09-29 03:03:00,62.5,57.3,30.00,SSW,197,3.0,5.0,83,0.00,,,0.00,Wunderground v.1.15,2013-09-29 07:03:00,
2013-09-29 03:08:00,62.6,57.0,30.00,SSE,153,3.0,5.0,82,0.00,,,0.00,Wunderground v.1.15,2013-09-29 07:08:00,
2013-09-29 03:14:00,62.6,57.0,30.00,SSW,202,3.0,5.0,82,0.00,,,0.00,Wunderground v.1.15,2013-09-29 07:14:00,
2013-09-29 03:19:00,62.6,57.0,30.00,SSW,203,3.0,5.0,82,0.00,,,0.00,Wunderground v.1.15,2013-09-29 07:19:00,
2013-09-29 03:25:00,62.6,57.0,30.00,SSW,197,3.0,5.0,82,0.00,,,0.00,Wunderground v.1.15,2013-09-29 07:25:00,
2013-09-29 03:30:00,62.8,57.2,30.00,SSW,210,3.0,3.0,82,0.00,,,0.00,Wunderground v.1.15,2013-09-29 07:30:00,
2013-09-29 03:36:00,63.0,57.4,29.99,SSW,204,3.0,5.0,82,0.00,,,0.00,Wunderground v.1.15,2013-09-29 07:36:00,
2013-09-29 03:42:00,63.1,57.5,29.99,South,173,4.0,5.0,82,0.00,,,0.00,Wunderground v.1.15,2013-09-29 07:42:00,
2013-09-29 03:47:00,63.1,57.5,29.99,SW,228,4.0,5.0,82,0.00,,,0.00,Wunderground v.1.15,2013-09-29 07:47:00,
2013-09-29 03:53:00,63.1,57.5,29.99,SSE,160,3.0,5.0,82,0.00,,,0.00,Wunderground v.1.15,2013-09-29 07:53:00,
2013-09-29 03:58:00,63.0,57.4,29.99,SSE,148,3.0,5.0,82,0.00,,,0.00,Wunderground v.1.15,2013-09-29 07:58:00,
2013-09-29 04:04:00,63.0,57.4,29.99,SSW,212,3.0,5.0,82,0.00,,,0.00,Wunderground v.1.15,2013-09-29 08:04:00,
2013-09-29 04:10:00,63.0,57.4,29.99,SSW,200,2.0,5.0,82,0.00,,,0.00,Wunderground v.1.15,2013-09-29 08:10:00,
2013-09-29 04:16:00,63.2,57.3,29.99,SSE,150,3.0,5.0,81,0.00,,,0.00,Wunderground v.1.15,2013-09-29 08:16:00,
2013-09-29 04:22:00,63.4,57.5,29.99,SSW,204,3.0,5.0,81,0.00,,,0.00,Wunderground v.1.15,2013-09-29 08:22:00,
2013-09-29 04:28:00,63.5,57.6,29.99,SSE,150,3.0,5.0,81,0.00,,,0.00,Wunderground v.1.15,2013-09-29 08:28:00,
2013-09-29 04:34:00,63.5,57.6,29.98,South,174,3.0,5.0,81,0.00,,,0.00,Wunderground v.1.15,2013-09-29 08:34:00,
2013-09-29 04:40:00,63.5,57.6,29.98,SSE,160,3.0,5.0,81,0.00,,,0.00,Wunderground v.1.15,2013-09-29 08:40:00,
2013-09-29 04:46:00,63.6,57.3,29.98,SSW,211,4.0,5.0,80,0.00,,,0.00,Wunderground v.1.15,2013-09-29 08:46:00,
2013-09-29 04:52:00,63.6,57.3,29.98,SSW,194,4.0,5.0,80,0.00,,,0.00,Wunderground v.1.15,2013-09-29 08:52:00,
2013-09-29 04:57:00,63.6,57.7,29.98,SSW,210,4.0,6.0,81,0.00,,,0.00,Wunderground v.1.15,2013-09-29 08:57:00,
2013-09-29 05:02:00,63.6,57.3,29.98,SSW,200,4.0,5.0,80,0.00,,,0.00,Wunderground v.1.15,2013-09-29 09:02:00,
2013-09-29 05:08:00,63.5,57.6,29.98,South,188,4.0,5.0,81,0.00,,,0.00,Wunderground v.1.15,2013-09-29 09:08:00,
2013-09-29 05:14:00,63.5,57.6,29.98,South,181,4.0,5.0,81,0.00,,,0.00,Wunderground v.1.15,2013-09-29 09:14:00,
2013-09-29 05:20:00,63.4,57.5,29.98,SSE,158,4.0,4.0,81,0.00,,,0.00,Wunderground v.1.15,2013-09-29 09:20:00,
2013-09-29 05:26:00,63.4,57.5,29.98,SSW,212,4.0,5.0,81,0.00,,,0.00,Wunderground v.1.15,2013-09-29 09:26:00,
2013-09-29 05:32:00,63.4,57.5,29.98,SW,227,3.0,5.0,81,0.00,,,0.00,Wunderground v.1.15,2013-09-29 09:32:00,
2013-09-29 05:38:00,63.3,57.7,29.98,SSE,160,3.0,5.0,82,0.00,,,0.01,Wunderground v.1.15,2013-09-29 09:38:00,
2013-09-29 05:43:00,63.0,58.1,29.98,SSE,167,3.0,5.0,84,0.00,,,0.01,Wunderground v.1.15,2013-09-29 09:43:00,
2013-09-29 05:49:00,62.5,57.9,29.98,SSE,158,3.0,5.0,85,0.00,,,0.01,Wunderground v.1.15,2013-09-29 09:49:00,
2013-09-29 05:55:00,62.1,57.9,29.98,SSE,150,3.0,5.0,86,0.00,,,0.01,Wunderground v.1.15,2013-09-29 09:55:00,
2013-09-29 06:00:00,62.0,57.8,29.98,SE,146,2.0,5.0,86,0.00,,,0.01,Wunderground v.1.15,2013-09-29 10:00:00,
2013-09-29 06:06:00,62.0,58.1,29.98,SSW,205,2.0,5.0,87,0.00,,,0.01,Wunderground v.1.15,2013-09-29 10:06:00,
2013-09-29 06:12:00,62.0,58.1,29.98,SSW,197,2.0,5.0,87,0.00,,,0.01,Wunderground v.1.15,2013-09-29 10:12:00,
2013-09-29 06:18:00,62.1,58.2,29.97,SE,124,3.0,5.0,87,0.00,,,0.01,Wunderground v.1.15,2013-09-29 10:18:00,
2013-09-29 06:24:00,62.1,58.2,29.97,SSE,158,2.0,5.0,87,0.00,,,0.01,Wunderground v.1.15,2013-09-29 10:24:00,
2013-09-29 06:30:00,62.1,58.5,29.98,SW,218,1.0,5.0,88,0.00,,,0.01,Wunderground v.1.15,2013-09-29 10:30:00,
2013-09-29 06:36:00,61.9,58.3,29.98,South,190,1.0,5.0,88,0.00,,,0.01,Wunderground v.1.15,2013-09-29 10:36:00,
2013-09-29 06:42:00,61.8,58.2,29.98,SSW,208,1.0,5.0,88,0.00,,,0.01,Wunderground v.1.15,2013-09-29 10:42:00,
2013-09-29 06:48:00,61.9,58.3,29.98,South,191,3.0,5.0,88,0.00,,,0.01,Wunderground v.1.15,2013-09-29 10:48:00,
2013-09-29 06:53:00,62.0,58.4,29.98,SSE,155,4.0,6.0,88,0.00,,,0.02,Wunderground v.1.15,2013-09-29 10:53:00,
2013-09-29 06:59:00,61.9,58.3,29.98,South,191,3.0,6.0,88,0.05,,,0.03,Wunderground v.1.15,2013-09-29 10:59:00,
2013-09-29 07:05:00,61.7,58.4,29.98,SSW,207,3.0,5.0,89,0.05,,,0.03,Wunderground v.1.15,2013-09-29 11:05:00,
2013-09-29 07:11:00,61.6,58.6,29.98,SSW,211,2.0,5.0,90,0.05,,,0.03,Wunderground v.1.15,2013-09-29 11:11:00,
2013-09-29 07:17:00,61.4,58.4,29.98,South,188,2.0,5.0,90,0.04,,,0.04,Wunderground v.1.15,2013-09-29 11:17:00,
2013-09-29 07:23:00,61.3,58.7,29.98,SSE,158,2.0,5.0,91,0.04,,,0.04,Wunderground v.1.15,2013-09-29 11:23:00,
2013-09-29 07:29:00,61.2,58.6,29.99,South,183,2.0,5.0,91,0.04,,,0.04,Wunderground v.1.15,2013-09-29 11:29:00,
2013-09-29 07:35:00,61.2,58.6,29.99,South,191,2.0,5.0,91,0.00,,,0.04,Wunderground v.1.15,2013-09-29 11:35:00,
2013-09-29 07:41:00,61.1,58.5,29.99,SSW,198,2.0,5.0,91,0.00,,,0.04,Wunderground v.1.15,2013-09-29 11:41:00,
2013-09-29 07:47:00,61.4,58.7,29.99,SW,217,3.0,5.0,91,0.00,,,0.04,Wunderground v.1.15,2013-09-29 11:47:00,
2013-09-29 07:53:00,61.4,58.7,29.99,SW,233,3.0,5.0,91,0.00,,,0.04,Wunderground v.1.15,2013-09-29 11:53:00,
2013-09-29 07:58:00,61.4,58.7,30.00,SW,219,2.0,5.0,91,0.00,,,0.04,Wunderground v.1.15,2013-09-29 11:58:00,
2013-09-29 08:04:00,61.3,58.7,30.00,SW,218,2.0,5.0,91,0.52,,,0.06,Wunderground v.1.15,2013-09-29 12:04:00,
2013-09-29 08:42:00,60.9,59.5,29.99,SSW,201,2.0,5.0,95,0.07,,,0.23,Wunderground v.1.15,2013-09-29 12:42:00,
2013-09-29 08:47:00,60.9,59.5,29.99,South,190,2.0,5.0,95,0.07,,,0.23,Wunderground v.1.15,2013-09-29 12:47:00,
2013-09-29 08:53:00,60.8,59.4,29.99,South,181,2.0,5.0,95,0.05,,,0.23,Wunderground v.1.15,2013-09-29 12:53:00,
2013-09-29 08:59:00,60.7,59.3,29.99,SSW,195,2.0,5.0,95,0.04,,,0.24,Wunderground v.1.15,2013-09-29 12:59:00,
2013-09-29 09:05:00,60.7,59.6,29.99,SSE,162,2.0,5.0,96,0.04,,,0.24,Wunderground v.1.15,2013-09-29 13:05:00,
2013-09-29 09:11:00,60.7,59.6,29.99,SSE,160,3.0,5.0,96,0.07,,,0.25,Wunderground v.1.15,2013-09-29 13:11:00,
2013-09-29 09:17:00,60.6,59.5,29.99,SSE,156,3.0,5.0,96,0.05,,,0.25,Wunderground v.1.15,2013-09-29 13:17:00,
2013-09-29 09:23:00,60.7,59.6,29.99,South,180,2.0,5.0,96,0.04,,,0.26,Wunderground v.1.15,2013-09-29 13:23:00,
2013-09-29 09:29:00,60.7,59.6,29.99,SE,129,3.0,5.0,96,0.04,,,0.26,Wunderground v.1.15,2013-09-29 13:29:00,
2013-09-29 09:35:00,60.7,59.6,29.99,SSW,204,3.0,5.0,96,0.04,,,0.26,Wunderground v.1.15,2013-09-29 13:35:00,
2013-09-29 09:41:00,60.8,59.7,29.99,SSW,208,3.0,5.0,96,0.00,,,0.26,Wunderground v.1.15,2013-09-29 13:41:00,
2013-09-29 09:46:00,60.8,59.7,29.99,SW,218,3.0,5.0,96,0.00,,,0.26,Wunderground v.1.15,2013-09-29 13:46:00,
2013-09-29 09:52:00,60.9,59.8,29.99,SSE,157,2.0,5.0,96,0.00,,,0.27,Wunderground v.1.15,2013-09-29 13:52:00,
2013-09-29 09:57:00,60.9,59.8,29.99,South,177,2.0,5.0,96,0.00,,,0.27,Wunderground v.1.15,2013-09-29 13:57:00,
2013-09-29 10:03:00,60.9,59.8,29.99,SSW,200,2.0,5.0,96,0.00,,,0.27,Wunderground v.1.15,2013-09-29 14:03:00,
2013-09-29 10:09:00,61.0,59.9,29.99,SSW,195,3.0,5.0,96,0.00,,,0.27,Wunderground v.1.15,2013-09-29 14:09:00,
2013-09-29 10:15:00,61.0,59.9,29.99,SSE,166,3.0,5.0,96,0.00,,,0.27,Wunderground v.1.15,2013-09-29 14:15:00,
2013-09-29 10:20:00,61.0,59.9,29.99,South,174,3.0,5.0,96,0.00,,,0.27,Wunderground v.1.15,2013-09-29 14:20:00,
2013-09-29 10:26:00,61.2,60.1,29.99,South,173,3.0,5.0,96,0.00,,,0.27,Wunderground v.1.15,2013-09-29 14:26:00,
2013-09-29 10:32:00,61.3,60.4,29.99,SSW,193,3.0,5.0,97,0.00,,,0.27,Wunderground v.1.15,2013-09-29 14:32:00,
2013-09-29 10:38:00,61.3,60.2,29.99,SSW,198,3.0,7.0,96,0.00,,,0.28,Wunderground v.1.15,2013-09-29 14:38:00,
2013-09-29 10:44:00,61.3,60.4,29.99,SSW,201,3.0,5.0,97,0.00,,,0.28,Wunderground v.1.15,2013-09-29 14:44:00,
2013-09-29 10:50:00,61.4,60.5,29.99,South,169,3.0,3.0,97,0.00,,,0.28,Wunderground v.1.15,2013-09-29 14:50:00,
2013-09-29 10:56:00,61.5,60.6,30.00,SSW,195,3.0,5.0,97,0.00,,,0.29,Wunderground v.1.15,2013-09-29 14:56:00,
2013-09-29 11:02:00,61.5,60.6,30.00,SSW,207,3.0,6.0,97,0.00,,,0.29,Wunderground v.1.15,2013-09-29 15:02:00,
2013-09-29 11:08:00,61.4,60.5,30.00,SSE,162,3.0,7.0,97,0.00,,,0.29,Wunderground v.1.15,2013-09-29 15:08:00,
2013-09-29 11:14:00,61.4,60.2,30.00,SE,138,4.0,5.0,96,0.00,,,0.29,Wunderground v.1.15,2013-09-29 15:14:00,
2013-09-29 11:20:00,61.3,60.2,30.00,SSW,210,3.0,5.0,96,0.00,,,0.29,Wunderground v.1.15,2013-09-29 15:20:00,
2013-09-29 11:26:00,61.3,60.2,30.00,SSW,207,3.0,5.0,96,0.00,,,0.29,Wunderground v.1.15,2013-09-29 15:26:00,
2013-09-29 11:32:00,61.3,60.4,30.00,South,183,2.0,5.0,97,0.00,,,0.29,Wunderground v.1.15,2013-09-29 15:32:00,
2013-09-29 11:38:00,61.4,60.5,30.00,SW,235,2.0,5.0,97,0.00,,,0.29,Wunderground v.1.15,2013-09-29 15:38:00,
2013-09-29 11:44:00,61.5,60.6,30.00,SW,221,2.0,5.0,97,0.00,,,0.29,Wunderground v.1.15,2013-09-29 15:44:00,
2013-09-29 11:50:00,61.5,60.6,30.00,WSW,240,3.0,3.0,97,0.00,,,0.29,Wunderground v.1.15,2013-09-29 15:50:00,
2013-09-29 11:56:00,61.6,60.7,30.00,SSW,212,2.0,5.0,97,0.00,,,0.29,Wunderground v.1.15,2013-09-29 15:56:00,
2013-09-29 12:01:00,61.6,60.7,30.00,SW,217,2.0,5.0,97,0.00,,,0.29,Wunderground v.1.15,2013-09-29 16:01:00,
2013-09-29 12:07:00,61.7,60.8,30.00,SSW,195,3.0,5.0,97,0.00,,,0.29,Wunderground v.1.15,2013-09-29 16:07:00,
2013-09-29 12:13:00,61.8,60.9,30.00,SW,221,2.0,5.0,97,0.00,,,0.30,Wunderground v.1.15,2013-09-29 16:13:00,
2013-09-29 12:19:00,62.0,61.1,29.99,SSW,208,2.0,5.0,97,0.00,,,0.30,Wunderground v.1.15,2013-09-29 16:19:00,
2013-09-29 12:25:00,62.2,61.3,29.99,SW,233,2.0,5.0,97,0.00,,,0.30,Wunderground v.1.15,2013-09-29 16:25:00,
2013-09-29 12:30:00,62.2,61.3,29.99,SSW,193,2.0,5.0,97,0.00,,,0.30,Wunderground v.1.15,2013-09-29 16:30:00,
2013-09-29 12:36:00,62.3,61.4,29.99,SSW,207,2.0,5.0,97,0.00,,,0.30,Wunderground v.1.15,2013-09-29 16:36:00,
2013-09-29 12:42:00,62.3,61.4,29.99,NNW,333,2.0,7.0,97,0.00,,,0.30,Wunderground v.1.15,2013-09-29 16:42:00,
2013-09-29 12:48:00,62.0,61.1,29.99,NW,310,4.0,7.0,97,0.00,,,0.30,Wunderground v.1.15,2013-09-29 16:48:00,
2013-09-29 12:54:00,61.9,61.0,29.99,NW,314,3.0,6.0,97,0.00,,,0.30,Wunderground v.1.15,2013-09-29 16:54:00,
2013-09-29 12:59:00,62.0,61.1,29.99,NW,323,2.0,6.0,97,0.00,,,0.30,Wunderground v.1.15,2013-09-29 16:59:00,
2013-09-29 13:05:00,62.0,61.1,29.99,NNW,334,3.0,5.0,97,0.00,,,0.30,Wunderground v.1.15,2013-09-29 17:05:00,
2013-09-29 13:11:00,62.0,61.1,29.99,North,359,4.0,5.0,97,0.00,,,0.30,Wunderground v.1.15,2013-09-29 17:11:00,
2013-09-29 13:17:00,62.1,61.2,29.99,North,4,4.0,5.0,97,0.00,,,0.30,Wunderground v.1.15,2013-09-29 17:17:00,
2013-09-29 13:23:00,62.1,61.2,30.00,NNW,330,4.0,5.0,97,0.00,,,0.30,Wunderground v.1.15,2013-09-29 17:23:00,
2013-09-29 13:29:00,62.2,61.3,29.99,NNW,347,4.0,5.0,97,0.00,,,0.30,Wunderground v.1.15,2013-09-29 17:29:00,
2013-09-29 13:35:00,62.1,60.9,29.99,North,360,3.0,5.0,96,0.00,,,0.30,Wunderground v.1.15,2013-09-29 17:35:00,
2013-09-29 13:42:00,62.2,61.0,29.99,NNW,328,2.0,5.0,96,0.00,,,0.30,Wunderground v.1.15,2013-09-29 17:42:00,
2013-09-29 13:48:00,62.2,61.0,29.99,NNW,338,2.0,5.0,96,0.00,,,0.30,Wunderground v.1.15,2013-09-29 17:48:00,
2013-09-29 13:54:00,62.2,61.0,29.99,NNE,28,3.0,5.0,96,0.00,,,0.30,Wunderground v.1.15,2013-09-29 17:54:00,
2013-09-29 13:59:00,62.0,60.6,29.99,NNW,327,4.0,9.0,95,0.00,,,0.30,Wunderground v.1.15,2013-09-29 17:59:00,
2013-09-29 14:04:00,61.6,60.2,29.99,NNW,343,6.0,8.0,95,0.00,,,0.30,Wunderground v.1.15,2013-09-29 18:04:00,
2013-09-29 14:10:00,61.6,60.4,29.99,NNW,327,6.0,7.0,96,0.00,,,0.30,Wunderground v.1.15,2013-09-29 18:10:00,
2013-09-29 14:15:00,61.5,60.3,29.99,North,359,5.0,7.0,96,0.00,,,0.30,Wunderground v.1.15,2013-09-29 18:15:00,
2013-09-29 14:21:00,61.5,60.3,29.99,NNW,330,5.0,5.0,96,0.00,,,0.30,Wunderground v.1.15,2013-09-29 18:21:00,
2013-09-29 14:27:00,61.5,60.1,29.98,NNW,328,5.0,7.0,95,0.00,,,0.30,Wunderground v.1.15,2013-09-29 18:27:00,
2013-09-29 14:33:00,61.4,60.0,29.98,NNW,336,6.0,7.0,95,0.00,,,0.30,Wunderground v.1.15,2013-09-29 18:33:00,
2013-09-29 14:39:00,61.4,60.0,29.98,NW,311,5.0,7.0,95,0.00,,,0.30,Wunderground v.1.15,2013-09-29 18:39:00,
2013-09-29 14:44:00,61.4,60.0,29.98,NNW,330,4.0,5.0,95,0.00,,,0.30,Wunderground v.1.15,2013-09-29 18:44:00,
2013-09-29 14:50:00,61.6,59.9,29.98,NW,316,4.0,5.0,94,0.00,,,0.30,Wunderground v.1.15,2013-09-29 18:50:00,
2013-09-29 14:56:00,61.6,59.9,29.98,NNW,335,5.0,8.0,94,0.00,,,0.30,Wunderground v.1.15,2013-09-29 18:56:00,
2013-09-29 15:02:00,61.5,59.8,29.98,NNW,330,5.0,7.0,94,0.00,,,0.30,Wunderground v.1.15,2013-09-29 19:02:00,
2013-09-29 15:08:00,61.5,59.8,29.98,NW,317,4.0,7.0,94,0.00,,,0.30,Wunderground v.1.15,2013-09-29 19:08:00,
2013-09-29 15:14:00,61.6,59.9,29.98,NNW,340,4.0,6.0,94,0.00,,,0.30,Wunderground v.1.15,2013-09-29 19:14:00,
2013-09-29 15:20:00,61.7,60.0,29.98,NNW,330,4.0,4.0,94,0.00,,,0.30,Wunderground v.1.15,2013-09-29 19:20:00,
2013-09-29 15:26:00,61.7,60.0,29.98,NW,326,3.0,7.0,94,0.00,,,0.30,Wunderground v.1.15,2013-09-29 19:26:00,
2013-09-29 15:31:00,61.5,59.2,29.98,NNW,343,5.0,8.0,92,0.00,,,0.30,Wunderground v.1.15,2013-09-29 19:31:00,
2013-09-29 15:36:00,61.6,59.6,29.98,WNW,290,6.0,9.0,93,0.00,,,0.30,Wunderground v.1.15,2013-09-29 19:36:00,
2013-09-29 15:41:00,61.8,59.8,29.98,NNW,335,5.0,5.0,93,0.00,,,0.30,Wunderground v.1.15,2013-09-29 19:41:00,
2013-09-29 15:47:00,62.0,59.6,29.98,NW,319,3.0,5.0,92,0.00,,,0.30,Wunderground v.1.15,2013-09-29 19:47:00,
2013-09-29 15:52:00,62.1,59.7,29.98,NNW,329,3.0,5.0,92,0.00,,,0.30,Wunderground v.1.15,2013-09-29 19:52:00,
2013-09-29 15:58:00,62.2,59.8,29.98,NNW,330,4.0,8.0,92,0.00,,,0.30,Wunderground v.1.15,2013-09-29 19:58:00,
2013-09-29 16:04:00,62.0,59.0,29.98,North,350,6.0,10.0,90,0.00,,,0.30,Wunderground v.1.15,2013-09-29 20:04:00,
2013-09-29 16:10:00,61.6,58.6,29.98,NW,316,7.0,7.0,90,0.00,,,0.30,Wunderground v.1.15,2013-09-29 20:10:00,
2013-09-29 16:16:00,61.6,58.9,29.98,NNW,333,7.0,7.0,91,0.00,,,0.30,Wunderground v.1.15,2013-09-29 20:16:00,
2013-09-29 16:22:00,61.6,58.9,29.98,NW,320,5.0,6.0,91,0.00,,,0.30,Wunderground v.1.15,2013-09-29 20:22:00,
2013-09-29 16:28:00,61.8,59.1,29.98,NW,317,3.0,6.0,91,0.00,,,0.30,Wunderground v.1.15,2013-09-29 20:28:00,
2013-09-29 16:33:00,62.0,59.3,29.98,North,8,3.0,5.0,91,0.00,,,0.30,Wunderground v.1.15,2013-09-29 20:33:00,
2013-09-29 16:38:00,62.1,59.1,29.98,North,354,3.0,5.0,90,0.00,,,0.30,Wunderground v.1.15,2013-09-29 20:38:00,
2013-09-29 16:44:00,62.0,58.7,29.98,North,10,5.0,8.0,89,0.00,,,0.30,Wunderground v.1.15,2013-09-29 20:44:00,
2013-09-29 16:50:00,61.9,58.6,29.98,NNE,21,5.0,5.0,89,0.00,,,0.30,Wunderground v.1.15,2013-09-29 20:50:00,
2013-09-29 16:56:00,62.1,58.8,29.98,NNW,345,4.0,5.0,89,0.00,,,0.30,Wunderground v.1.15,2013-09-29 20:56:00,
2013-09-29 17:02:00,62.3,58.7,29.98,NE,46,2.0,5.0,88,0.00,,,0.30,Wunderground v.1.15,2013-09-29 21:02:00,
2013-09-29 17:08:00,62.5,58.9,29.98,NE,48,2.0,5.0,88,0.00,,,0.30,Wunderground v.1.15,2013-09-29 21:08:00,
2013-09-29 17:14:00,62.9,59.3,29.98,NE,54,1.0,5.0,88,0.00,,,0.30,Wunderground v.1.15,2013-09-29 21:14:00,
2013-09-29 17:20:00,63.0,59.1,29.98,NE,48,1.0,5.0,87,0.00,,,0.30,Wunderground v.1.15,2013-09-29 21:20:00,
2013-09-29 17:25:00,63.0,59.1,29.98,NE,49,2.0,5.0,87,0.00,,,0.30,Wunderground v.1.15,2013-09-29 21:25:00,
2013-09-29 17:31:00,62.9,59.3,29.98,NE,41,2.0,5.0,88,0.00,,,0.30,Wunderground v.1.15,2013-09-29 21:31:00,
2013-09-29 17:37:00,63.0,59.4,29.98,NE,42,1.0,5.0,88,0.00,,,0.30,Wunderground v.1.15,2013-09-29 21:37:00,
2013-09-29 17:43:00,63.3,59.4,29.98,NE,36,1.0,5.0,87,0.00,,,0.30,Wunderground v.1.15,2013-09-29 21:43:00,
2013-09-29 17:49:00,63.4,59.1,29.98,NE,45,1.0,5.0,86,0.00,,,0.30,Wunderground v.1.15,2013-09-29 21:49:00,
2013-09-29 17:55:00,63.5,59.6,29.98,SE,141,1.0,5.0,87,0.00,,,0.30,Wunderground v.1.15,2013-09-29 21:55:00,
2013-09-29 18:00:00,63.7,59.4,29.99,NE,37,1.0,1.0,86,0.00,,,0.30,Wunderground v.1.15,2013-09-29 22:00:00,
2013-09-29 18:06:00,63.8,59.2,29.99,NE,39,1.0,5.0,85,0.00,,,0.30,Wunderground v.1.15,2013-09-29 22:06:00,
2013-09-29 18:11:00,64.3,59.7,29.99,East,79,1.0,5.0,85,0.00,,,0.30,Wunderground v.1.15,2013-09-29 22:11:00,
2013-09-29 18:17:00,64.7,59.8,29.99,SE,134,1.0,5.0,84,0.00,,,0.30,Wunderground v.1.15,2013-09-29 22:17:00,
2013-09-29 18:22:00,65.2,60.2,29.99,NE,46,1.0,5.0,84,0.00,,,0.30,Wunderground v.1.15,2013-09-29 22:22:00,
2013-09-29 18:32:00,65.6,60.0,29.99,ESE,103,1.0,5.0,82,0.00,,,0.30,Wunderground v.1.15,2013-09-29 22:32:00,
2013-09-29 18:38:00,66.8,60.4,29.99,East,90,0.0,5.0,80,0.00,,,0.30,Wunderground v.1.15,2013-09-29 22:38:00,
2013-09-29 18:43:00,67.1,60.4,29.99,NE,53,0.0,5.0,79,0.00,,,0.30,Wunderground v.1.15,2013-09-29 22:43:00,
2013-09-29 18:49:00,66.7,60.3,29.99,ESE,117,0.0,5.0,80,0.00,,,0.30,Wunderground v.1.15,2013-09-29 22:49:00,
2013-09-29 18:55:00,66.5,60.8,29.99,ESE,117,0.0,5.0,82,0.00,,,0.30,Wunderground v.1.15,2013-09-29 22:55:00,
2013-09-29 19:01:00,66.2,59.8,29.99,ENE,63,0.0,5.0,80,0.00,,,0.30,Wunderground v.1.15,2013-09-29 23:01:00,
2013-09-29 19:06:00,65.3,59.7,29.99,East,101,1.0,5.0,82,0.00,,,0.30,Wunderground v.1.15,2013-09-29 23:06:00,
2013-09-29 19:12:00,64.0,59.1,29.99,ESE,105,1.0,5.0,84,0.00,,,0.30,Wunderground v.1.15,2013-09-29 23:12:00,
2013-09-29 19:18:00,62.7,59.1,29.99,SE,124,1.0,5.0,88,0.00,,,0.30,Wunderground v.1.15,2013-09-29 23:18:00,
2013-09-29 19:24:00,61.9,58.6,29.99,SE,124,1.0,5.0,89,0.00,,,0.30,Wunderground v.1.15,2013-09-29 23:24:00,
2013-09-29 19:30:00,61.0,58.0,29.99,SSW,194,1.0,5.0,90,0.00,,,0.30,Wunderground v.1.15,2013-09-29 23:30:00,
2013-09-29 19:36:00,60.1,57.5,29.98,SE,139,1.0,5.0,91,0.00,,,0.30,Wunderground v.1.15,2013-09-29 23:36:00,
2013-09-29 19:41:00,59.9,57.9,29.98,SE,135,2.0,5.0,93,0.00,,,0.30,Wunderground v.1.15,2013-09-29 23:41:00,
2013-09-29 19:46:00,59.2,56.9,29.99,SE,135,1.0,5.0,92,0.00,,,0.30,Wunderground v.1.15,2013-09-29 23:46:00,
2013-09-29 19:52:00,58.7,56.7,29.99,SE,132,0.0,5.0,93,0.00,,,0.30,Wunderground v.1.15,2013-09-29 23:52:00,
2013-09-29 19:58:00,58.6,57.2,29.99,SE,132,0.0,5.0,95,0.00,,,0.30,Wunderground v.1.15,2013-09-29 23:58:00,
2013-09-29 20:04:00,58.6,57.2,29.99,ESE,110,0.0,5.0,95,0.00,,,0.30,Wunderground v.1.15,2013-09-30 00:04:00,
2013-09-29 20:10:00,58.4,57.0,29.99,ESE,118,0.0,5.0,95,0.00,,,0.30,Wunderground v.1.15,2013-09-30 00:10:00,
2013-09-29 20:16:00,58.0,56.6,29.99,ESE,121,0.0,5.0,95,0.00,,,0.30,Wunderground v.1.15,2013-09-30 00:16:00,
2013-09-29 20:22:00,58.0,56.9,29.99,SE,129,0.0,5.0,96,0.00,,,0.30,Wunderground v.1.15,2013-09-30 00:22:00,
2013-09-29 20:28:00,58.1,57.0,29.99,SE,127,1.0,5.0,96,0.00,,,0.30,Wunderground v.1.15,2013-09-30 00:28:00,
2013-09-29 20:34:00,58.2,57.4,29.99,ESE,104,2.0,5.0,97,0.00,,,0.30,Wunderground v.1.15,2013-09-30 00:34:00,
2013-09-29 20:40:00,58.1,57.0,29.99,SE,139,2.0,2.0,96,0.00,,,0.30,Wunderground v.1.15,2013-09-30 00:40:00,
2013-09-29 20:46:00,58.0,56.9,30.00,SE,145,2.0,5.0,96,0.00,,,0.30,Wunderground v.1.15,2013-09-30 00:46:00,
2013-09-29 20:52:00,57.8,56.7,30.00,SE,131,1.0,5.0,96,0.00,,,0.30,Wunderground v.1.15,2013-09-30 00:52:00,
2013-09-29 20:57:00,57.2,55.8,30.00,SE,131,0.0,5.0,95,0.00,,,0.30,Wunderground v.1.15,2013-09-30 00:57:00,
2013-09-29 21:02:00,56.5,55.4,30.00,SE,131,0.0,5.0,96,0.00,,,0.30,Wunderground v.1.15,2013-09-30 01:02:00,
2013-09-29 21:08:00,56.6,55.8,30.00,SE,131,0.0,5.0,97,0.00,,,0.30,Wunderground v.1.15,2013-09-30 01:08:00,
2013-09-29 21:14:00,56.5,55.7,30.00,SE,131,0.0,5.0,97,0.00,,,0.30,Wunderground v.1.15,2013-09-30 01:14:00,
2013-09-29 21:20:00,56.3,55.5,30.00,SE,136,0.0,5.0,97,0.00,,,0.30,Wunderground v.1.15,2013-09-30 01:20:00,
2013-09-29 21:26:00,56.1,55.3,30.00,SE,136,0.0,5.0,97,0.00,,,0.30,Wunderground v.1.15,2013-09-30 01:26:00,
2013-09-29 21:32:00,56.0,55.2,30.00,SE,136,0.0,5.0,97,0.00,,,0.30,Wunderground v.1.15,2013-09-30 01:32:00,
2013-09-29 21:38:00,55.7,54.9,30.00,SE,136,0.0,5.0,97,0.00,,,0.30,Wunderground v.1.15,2013-09-30 01:38:00,
2013-09-29 21:43:00,55.8,55.2,30.00,SW,233,0.0,5.0,98,0.00,,,0.30,Wunderground v.1.15,2013-09-30 01:43:00,
2013-09-29 21:49:00,55.3,54.5,30.00,West,281,1.0,5.0,97,0.00,,,0.30,Wunderground v.1.15,2013-09-30 01:49:00,
2013-09-29 21:54:00,55.6,55.0,30.00,WSW,255,1.0,5.0,98,0.00,,,0.30,Wunderground v.1.15,2013-09-30 01:54:00,
2013-09-29 22:00:00,55.8,55.2,30.00,WSW,253,0.0,5.0,98,0.00,,,0.30,Wunderground v.1.15,2013-09-30 02:00:00,
2013-09-29 22:06:00,55.6,55.0,30.00,WSW,253,0.0,5.0,98,0.00,,,0.30,Wunderground v.1.15,2013-09-30 02:06:00,
2013-09-29 22:12:00,55.6,55.0,30.00,WSW,253,0.0,5.0,98,0.00,,,0.30,Wunderground v.1.15,2013-09-30 02:12:00,
2013-09-29 22:18:00,55.1,54.3,30.00,WSW,253,0.0,5.0,97,0.00,,,0.30,Wunderground v.1.15,2013-09-30 02:18:00,
2013-09-29 22:24:00,54.8,54.0,30.00,WSW,253,0.0,5.0,97,0.00,,,0.30,Wunderground v.1.15,2013-09-30 02:24:00,
2013-09-29 22:30:00,54.6,53.8,30.00,WSW,253,0.0,5.0,97,0.00,,,0.30,Wunderground v.1.15,2013-09-30 02:30:00,
2013-09-29 22:35:00,54.3,53.5,30.00,WSW,253,0.0,5.0,97,0.00,,,0.30,Wunderground v.1.15,2013-09-30 02:35:00,
2013-09-29 22:40:00,54.1,53.3,30.00,WSW,253,0.0,5.0,97,0.00,,,0.30,Wunderground v.1.15,2013-09-30 02:40:00,
2013-09-29 22:46:00,54.4,53.8,30.00,WSW,253,0.0,5.0,98,0.00,,,0.30,Wunderground v.1.15,2013-09-30 02:46:00,
2013-09-29 22:51:00,54.5,53.9,30.00,WSW,253,0.0,5.0,98,0.00,,,0.30,Wunderground v.1.15,2013-09-30 02:51:00,
2013-09-29 22:57:00,54.6,54.0,30.00,SE,145,0.0,5.0,98,0.00,,,0.30,Wunderground v.1.15,2013-09-30 02:57:00,
2013-09-29 23:02:00,54.7,54.1,30.00,SE,145,0.0,5.0,98,0.00,,,0.30,Wunderground v.1.15,2013-09-30 03:02:00,
2013-09-29 23:08:00,54.9,54.3,30.00,SE,145,0.0,5.0,98,0.00,,,0.30,Wunderground v.1.15,2013-09-30 03:08:00,
2013-09-29 23:13:00,55.0,54.4,30.00,SE,145,0.0,5.0,98,0.00,,,0.30,Wunderground v.1.15,2013-09-30 03:13:00,
2013-09-29 23:19:00,55.1,54.5,30.00,SE,145,0.0,5.0,98,0.00,,,0.30,Wunderground v.1.15,2013-09-30 03:19:00,
2013-09-29 23:25:00,55.3,54.7,30.00,SE,145,0.0,5.0,98,0.00,,,0.30,Wunderground v.1.15,2013-09-30 03:25:00,
2013-09-29 23:31:00,55.7,55.1,30.00,SSE,150,0.0,5.0,98,0.00,,,0.30,Wunderground v.1.15,2013-09-30 03:31:00,
2013-09-29 23:37:00,55.9,55.3,30.00,SSE,150,0.0,5.0,98,0.00,,,0.30,Wunderground v.1.15,2013-09-30 03:37:00,
2013-09-29 23:43:00,56.0,55.4,30.01,SSE,149,0.0,5.0,98,0.00,,,0.30,Wunderground v.1.15,2013-09-30 03:43:00,
2013-09-29 23:49:00,56.1,55.5,30.01,SE,134,0.0,5.0,98,0.00,,,0.30,Wunderground v.1.15,2013-09-30 03:49:00,
2013-09-29 23:54:00,56.1,55.5,30.01,SSE,150,0.0,5.0,98,0.00,,,0.30,Wunderground v.1.15,2013-09-30 03:54:00,